Location: Solstice Park, West Seattle
(47.5363°N, 122.3905°W)
Time: 12:36:55
(UTC-07:00)

ISS - Pass Details

Date: 16 May 2021
Orbit: 417 x 422 km, 51.6° (Epoch: 22 June)

Event Time Altitude Azimuth Distance (km) Brightness Sun altitude
Rises 03:12:12 0° 293° (WNW) 2,373 0.0 -17.5°
Reaches altitude 10° 03:14:19 10° 291° (WNW) 1,507 -1.1 -17.3°
Maximum altitude 03:17:40 64° 210° (SSW) 469 -3.9 -17.0°
Drops below altitude 10° 03:21:01 10° 127° (SE) 1,502 -1.0 -16.7°
Sets 03:23:07 0° 125° (SE) 2,364 0.1 -16.5°
